Location: Esp�s Alto
(42.4476°N, 0.5876°E)
Time: 23:44:32
(UTC+00:00)

CENTAUR R/B - Pass Details

Date: 22 October 2019
Orbit: 781 x 1407 km, 63.4° (Epoch: 10 November)

Event Time Altitude Azimuth Distance (km) Brightness Sun altitude
Exits shadow 02:09:14 33° 24° (NNE) 2,054 4.3 -45.1°
Maximum altitude 02:10:14 34° 38° (NE) 2,039 4.4 -44.9°
Drops below altitude 10° 02:17:50 10° 101° (E) 3,468 5.7 -43.8°
Sets 02:21:11 0° 110° (ESE) 4,463 6.3 -43.2°
